DateTimeUTC,F1_A11,F1_S11,BsB_S11,BsG_S11,BsR_S11,BbsB_S11,BbsG_S11,BbsR_S11,BaB_A11,BaG_A11,BaR_A11,T_S11,U_S11,P_S11,T1_A11
2020-12-06T00:00:00Z,00000380,21000600,,,,,,,,,,24.1,00.0,0648.3,31.0
2020-12-06T00:01:00Z,00000380,21000600,,,,,,,,,,24.1,00.0,0648.3,31.0
2020-12-06T00:02:00Z,00000380,21000600,,,,,,,,,,24.1,00.0,0648.3,31.0
2020-12-06T00:03:00Z,00000380,61000600,,,,,,,,,,24.1,00.0,0648.3,31.0
2020-12-06T00:04:00Z,00000380,41000600,0001.31,0000.32,0000.36,0000.18,0000.12,-000.01,-000.14,-000.18,-000.05,23.9,00.0,0649.3,31.0
2020-12-06T00:05:00Z,00000380,01000600,0000.59,0000.03,0000.28,-000.22,0000.16,-000.03,0000.17,0000.16,0000.09,23.9,00.0,0649.3,31.0
2020-12-06T00:06:00Z,00000380,01000600,0001.13,0000.17,0000.14,-000.08,0000.11,-000.22,-000.21,-000.03,0000.06,23.9,00.0,0649.3,30.9
2020-12-06T00:07:00Z,00000380,01000600,0000.49,0000.64,0000.32,0000.15,0000.19,-000.09,0000.06,-000.01,-000.08,23.9,00.0,0649.3,31.0
2020-12-06T00:08:00Z,00000380,01000600,0000.80,0000.17,0000.81,0000.18,0000.43,0000.51,-000.05,0000.05,0000.02,23.8,00.0,0649.3,31.0
2020-12-06T00:09:00Z,00000380,01000600,0000.22,0000.47,0000.88,0000.79,-000.08,0000.13,-000.00,-000.13,-000.08,23.8,00.0,0649.3,31.0
2020-12-06T00:10:00Z,00000380,01000600,0000.38,0000.32,0000.00,-000.48,0000.06,-000.22,0000.11,0000.12,0000.14,23.8,00.0,0649.3,31.0
2020-12-06T00:11:00Z,00000380,01000600,0001.64,0000.73,0000.44,-000.44,0000.11,-000.39,-000.07,0000.04,0000.06,23.8,00.0,0649.3,31.0
2020-12-06T00:12:00Z,00000380,01000600,0000.22,0000.16,0000.72,0000.59,0000.37,0000.41,0000.24,0000.14,-000.06,23.8,00.0,0649.3,31.0
2020-12-06T00:13:00Z,00000380,01000600,0000.45,0000.66,0000.56,0000.61,0000.34,-000.06,-000.16,-000.09,0000.05,23.8,00.0,0649.3,31.0
2020-12-06T00:14:00Z,00000380,01000600,0000.99,0000.60,-000.01,0001.19,0000.43,-000.05,0000.12,-000.03,0000.11,23.8,00.0,0649.3,31.0
2020-12-06T00:15:00Z,00000380,01000600,0000.61,0000.28,0000.33,0000.48,0000.04,0000.04,-000.05,-000.02,-000.18,23.8,00.0,0649.3,30.9
2020-12-06T00:16:00Z,00000380,01000600,0000.95,0000.17,0000.34,-000.05,0000.32,0000.26,-000.15,0000.02,0000.06,23.8,00.0,0649.3,31.0
2020-12-06T00:17:00Z,00000380,01000600,0000.79,0000.26,0000.90,-000.18,0000.18,0000.23,0000.18,0000.16,0000.09,23.8,00.0,0649.3,31.0
2020-12-06T00:18:00Z,00000380,01000600,0001.51,0000.54,0000.22,-000.38,0000.39,0000.11,-000.01,-000.10,0000.06,23.8,00.0,0649.3,31.0
2020-12-06T00:19:00Z,00000380,01000600,0001.23,0000.39,0000.57,-000.51,0000.41,0000.12,0000.09,0000.10,-000.08,23.8,00.0,0649.3,31.0
2020-12-06T00:20:00Z,00000380,01000600,0000.90,0000.18,0000.78,0000.63,0000.09,0000.15,0000.05,-000.11,-000.07,23.8,00.0,0649.3,31.0
2020-12-06T00:21:00Z,00000380,01000600,0002.11,-000.07,0000.27,0000.61,0000.46,-000.15,-000.12,0000.06,0000.12,23.8,00.0,0649.3,30.9
2020-12-06T00:22:00Z,00000380,01000600,0000.76,0000.29,0000.15,0000.46,0000.21,-000.06,-000.05,-000.09,-000.10,23.8,00.0,0649.3,31.0
2020-12-06T00:23:00Z,00000380,01000600,0000.48,-000.21,0000.45,0000.93,-000.26,-000.06,0000.06,0000.16,0000.07,23.8,00.0,0649.4,31.0
2020-12-06T00:24:00Z,00000380,01000600,0000.25,-000.04,0000.20,0000.92,0000.14,-000.17,0000.11,0000.12,0000.04,23.8,00.0,0649.4,30.9
2020-12-06T00:25:00Z,00000380,01000600,0000.45,0000.12,0000.18,0000.30,-000.05,-000.15,0000.13,0000.03,0000.05,23.8,00.0,0649.3,30.9
2020-12-06T00:26:00Z,00000380,01000600,0000.49,0000.15,0001.05,-000.03,-000.08,0000.25,-000.08,0000.01,0000.14,23.8,00.0,0649.3,31.0
2020-12-06T00:27:00Z,00000380,01000600,0000.36,0000.51,0000.51,0000.42,0000.38,-000.06,-000.02,0000.15,-000.03,23.8,00.0,0649.3,31.0
2020-12-06T00:28:00Z,00000380,01000600,0001.18,0000.53,0001.09,0000.71,-000.06,0000.19,-000.02,-000.10,-000.16,23.9,00.0,0649.3,31.0
2020-12-06T00:29:00Z,00000380,01000600,0000.73,0000.31,0000.52,0000.46,0000.57,0000.07,-000.03,-000.02,0000.15,23.9,00.0,0649.3,31.0
2020-12-06T00:30:00Z,00000380,01000600,0000.79,0000.25,-000.35,0000.06,0000.35,0000.11,0000.06,-000.12,-000.15,23.9,00.0,0649.3,31.0
2020-12-06T00:31:00Z,00000380,01000600,0000.23,0000.51,0000.58,0000.48,0000.64,0000.09,0000.05,0000.10,0000.10,23.9,00.0,0649.3,31.0
2020-12-06T00:32:00Z,00000380,01000600,0001.75,-000.03,0000.45,-000.25,-000.04,0000.05,-000.18,-000.01,-000.07,23.9,00.0,0649.4,31.0
2020-12-06T00:33:00Z,00000380,01000600,0001.83,0000.45,0000.38,0000.69,0000.17,-000.00,0000.01,-000.12,-000.01,23.9,00.0,0649.4,31.0
2020-12-06T00:34:00Z,00000380,01000600,0000.58,0000.18,0000.77,0000.47,-000.33,0000.27,-000.02,0000.08,-000.03,23.9,00.0,0649.4,31.0
2020-12-06T00:35:00Z,00000380,01000600,0000.09,0000.17,0000.66,0000.47,0000.05,0000.01,0000.18,0000.11,0000.10,23.9,00.0,0649.4,31.0
2020-12-06T00:36:00Z,00000380,01000600,0000.20,0000.38,0000.68,0000.83,0000.10,-000.43,-000.05,-000.11,0000.06,23.9,00.0,0649.4,31.0
2020-12-06T00:37:00Z,00000380,01000600,0000.74,0000.43,0000.42,0000.27,-000.20,0000.38,0000.03,0000.16,-000.06,23.9,00.0,0649.4,31.0
2020-12-06T00:38:00Z,00000380,01000600,0000.57,-000.61,0000.74,0000.69,0000.09,0000.16,-000.12,-000.03,0000.05,23.9,00.0,0649.4,31.0
2020-12-06T00:39:00Z,00000380,01000600,-000.03,0000.29,-000.27,0000.25,-000.08,-000.18,0000.12,0000.17,0000.14,23.8,00.0,0649.4,31.0
2020-12-06T00:40:00Z,00000380,01000600,0001.40,0000.50,0000.64,-000.22,-000.10,0000.17,0000.04,-000.17,-000.15,23.8,00.0,0649.4,30.9
2020-12-06T00:41:00Z,00000380,01000600,0001.50,0000.55,0001.22,0000.87,0000.66,0000.33,0000.05,0000.18,0000.07,23.8,00.0,0649.4,31.0
2020-12-06T00:42:00Z,00000380,01010600,0000.33,0000.51,0001.24,0000.42,-000.30,0000.56,-000.01,-000.22,0000.04,23.8,00.0,0649.4,31.0
2020-12-06T00:43:00Z,00000380,01000600,0001.17,0000.76,0000.64,0000.32,0000.29,0000.12,-000.11,-000.05,-000.09,23.8,00.0,0649.4,31.0
2020-12-06T00:44:00Z,00000380,01000600,0000.78,0000.46,0000.26,0000.02,0000.02,-000.04,0000.15,0000.12,0000.04,23.8,00.0,0649.4,31.0
2020-12-06T00:45:00Z,00000380,01000600,0000.60,0000.17,0000.72,-000.21,0000.41,0000.38,-000.00,-000.04,0000.05,23.8,00.0,0649.4,31.0
2020-12-06T00:46:00Z,00000380,01000600,0000.93,0000.03,0000.35,0000.74,-000.15,0000.37,-000.09,0000.06,-000.13,23.8,00.0,0649.4,31.0
2020-12-06T00:47:00Z,00000380,01000600,0000.61,-000.19,0000.11,0000.13,0000.59,0000.30,0000.07,-000.07,0000.17,23.8,00.0,0649.4,31.0
2020-12-06T00:48:00Z,00000380,01000600,0000.51,-000.10,0000.66,0000.58,0000.39,0000.08,-000.07,0000.05,-000.04,23.8,00.0,0649.4,31.0
2020-12-06T00:49:00Z,00000380,01000600,0000.11,0000.02,0000.15,0001.29,-000.02,0000.03,-000.03,0000.14,0000.09,23.8,00.0,0649.4,31.0
2020-12-06T00:50:00Z,00000380,01000600,0000.07,0000.22,0000.82,0000.13,0000.05,0000.29,0000.20,-000.24,-000.08,23.8,00.0,0649.4,31.0
2020-12-06T00:51:00Z,00000380,01000600,0000.51,0000.66,0000.00,0000.34,0000.26,0000.35,0000.04,0000.15,0000.07,23.8,00.0,0649.4,31.0
2020-12-06T00:52:00Z,00000380,01000600,-000.06,0000.14,0000.26,0000.37,-000.04,-000.25,0000.04,0000.03,-000.05,23.8,00.0,0649.4,31.0
2020-12-06T00:53:00Z,00000380,01000600,-000.25,0000.19,0000.23,0000.84,0000.23,-000.55,-000.03,0000.13,0000.13,23.8,00.0,0649.4,31.0
2020-12-06T00:54:00Z,00000380,01000600,0001.26,-000.06,-000.08,0000.60,-000.01,0000.15,0000.18,0000.06,-000.05,23.8,00.0,0649.4,31.0
2020-12-06T00:55:00Z,00000380,01000600,0000.69,-000.07,-000.05,0000.94,0000.19,-000.05,0000.05,0000.15,-000.03,23.8,00.0,0649.4,30.9
2020-12-06T00:56:00Z,00000380,01000600,0001.60,0000.15,0000.00,0000.33,-000.09,-000.24,0000.12,0000.15,0000.26,23.8,00.0,0649.4,31.0
2020-12-06T00:57:00Z,00000380,41000600,,,,,,,,,,23.8,00.0,0649.4,31.0
2020-12-06T00:58:00Z,00000380,61000600,,,,,,,,,,24.0,00.0,0648.4,31.0
2020-12-06T00:59:00Z,00000380,21000600,,,,,,,,,,24.1,00.0,0648.4,31.0
2020-12-06T01:00:00Z,00000380,21000600,,,,,,,,,,24.1,00.0,0648.4,31.0
2020-12-06T01:01:00Z,00000380,21000600,,,,,,,,,,24.1,00.0,0648.4,31.0
2020-12-06T01:02:00Z,00000380,21000600,,,,,,,,,,24.1,00.0,0648.4,31.0
2020-12-06T01:03:00Z,00000380,61000600,,,,,,,,,,24.2,00.0,0648.4,31.0
2020-12-06T01:04:00Z,00000380,41000600,-000.65,-000.27,0000.24,-001.27,-000.23,0000.13,0000.28,0000.11,0000.12,24.0,00.0,0649.4,30.9
2020-12-06T01:05:00Z,00000380,01000600,0000.38,0000.54,0000.43,0000.15,0000.03,0000.61,-000.06,0000.03,-000.02,23.9,00.0,0649.4,31.0
2020-12-06T01:06:00Z,00000380,01000600,0000.38,0000.13,0000.67,-000.06,-000.25,0000.08,0000.09,0000.07,0000.15,23.9,00.0,0649.4,31.0
2020-12-06T01:07:00Z,00000380,01000600,0000.69,0000.64,0000.34,-000.29,-000.02,0000.24,0000.04,0000.09,-000.06,23.9,00.0,0649.5,31.0
2020-12-06T01:08:00Z,00000380,01000600,0000.73,0000.03,-000.10,-000.18,0000.37,-000.14,0000.03,0000.04,0000.16,23.9,00.0,0649.4,31.0
2020-12-06T01:09:00Z,00000380,01000600,-002.00,0000.34,0000.09,0000.17,0000.03,0000.18,0000.24,0000.28,0000.01,23.9,00.0,0649.4,31.0
2020-12-06T01:10:00Z,00000380,01000600,0000.70,0000.34,0000.23,-000.07,-000.02,0000.10,0000.14,-000.01,0000.17,23.8,00.0,0649.4,31.0
2020-12-06T01:11:00Z,00000380,01000600,0000.83,0000.48,-000.03,-000.41,-000.05,0000.17,0000.03,0000.14,0000.12,23.9,00.0,0649.4,31.0
2020-12-06T01:12:00Z,00000380,01000600,0000.91,-000.40,0000.31,0000.06,-000.31,0000.22,0000.13,-000.11,-000.12,23.9,00.0,0649.4,31.0
2020-12-06T01:13:00Z,00000380,01000600,0001.28,-000.27,0000.03,-000.28,-000.26,-000.07,-000.08,0000.20,0000.02,23.9,00.0,0649.4,31.0
2020-12-06T01:14:00Z,00000380,01000600,0001.13,-000.03,0000.41,-000.33,-000.20,0000.33,0000.15,0000.11,0000.08,23.9,00.0,0649.4,31.0
2020-12-06T01:15:00Z,00000380,01000600,0001.26,-000.03,0000.08,0000.50,-000.17,0000.00,-000.08,-000.02,0000.09,23.9,00.0,0649.4,31.0
2020-12-06T01:16:00Z,00000380,01000600,0000.36,0000.15,0001.08,-000.58,0000.08,0000.12,-000.03,-000.08,-000.07,23.9,00.0,0649.4,31.0
2020-12-06T01:17:00Z,00000380,01000600,-000.03,0000.39,0000.45,0000.01,0000.19,0000.15,0000.08,0000.08,0000.08,23.9,00.0,0649.4,31.0
2020-12-06T01:18:00Z,00000380,01000600,0000.89,0000.46,0000.61,0000.03,0000.25,0000.15,0000.19,-000.22,-000.04,23.9,00.0,0649.4,31.0
2020-12-06T01:19:00Z,00000380,01000600,0000.79,0000.62,0000.19,-000.22,0000.32,-000.21,-000.12,0000.14,0000.06,23.9,00.0,0649.4,31.0
2020-12-06T01:20:00Z,00000380,01000600,0000.22,0000.16,0000.34,0000.70,0000.02,0000.01,0000.10,0000.15,-000.07,23.9,00.0,0649.4,31.0
2020-12-06T01:21:00Z,00000380,01000600,0000.33,0000.31,0000.05,-001.17,0000.26,0000.27,-000.05,0000.17,0000.11,23.9,00.0,0649.4,31.0
2020-12-06T01:22:00Z,00000380,01000600,0000.89,0000.10,0000.29,0000.04,0000.14,-000.16,0000.16,-000.10,0000.10,23.9,00.0,0649.4,31.0
2020-12-06T01:23:00Z,00000380,01000600,0000.35,0000.39,0000.33,-000.59,0000.02,-000.06,0000.06,0000.11,0000.06,23.9,00.0,0649.4,31.0
2020-12-06T01:24:00Z,00000380,01000600,0001.18,0000.01,-000.02,0000.66,0000.05,-000.13,-000.19,-000.17,-000.15,23.8,00.0,0649.5,31.0
2020-12-06T01:25:00Z,00000380,01000600,-000.72,0000.38,0000.43,-000.79,-000.31,0000.37,-000.04,-000.01,-000.03,23.8,00.0,0649.5,31.0
2020-12-06T01:26:00Z,00000380,01000600,-000.23,0000.29,0000.00,-000.63,-000.10,0000.20,-000.04,0000.04,-000.02,23.8,00.0,0649.5,31.0
2020-12-06T01:27:00Z,00000380,01000600,0000.92,-000.02,0000.24,0000.22,-000.36,-000.00,0000.21,0000.16,0000.17,23.8,00.0,0649.4,31.0
2020-12-06T01:28:00Z,00000380,01000600,0000.28,0000.33,0001.29,0000.48,0000.04,0000.03,-000.02,0000.02,-000.10,23.8,00.0,0649.4,31.0
2020-12-06T01:29:00Z,00000380,01000600,0000.82,0000.44,0000.63,0000.50,0000.01,-000.22,0000.04,-000.03,0000.01,23.8,00.0,0649.4,31.0
2020-12-06T01:30:00Z,00000380,01000600,0000.79,0000.47,0001.49,-000.71,-000.04,0000.62,0000.05,0000.07,0000.05,23.8,00.0,0649.5,31.0
2020-12-06T01:31:00Z,00000380,01000600,0000.57,-000.14,-000.10,-000.31,-000.01,0000.27,-000.06,0000.04,0000.07,23.8,00.0,0649.4,31.0
2020-12-06T01:32:00Z,00000380,01000600,-001.93,0000.28,0000.46,-000.39,-000.27,-000.08,0000.14,0000.03,0000.04,23.8,00.0,0649.4,31.0
2020-12-06T01:33:00Z,00000380,01000600,0000.78,0000.14,0000.48,-000.65,-000.21,-000.11,0000.10,0000.15,-000.04,23.8,00.0,0649.4,31.0
2020-12-06T01:34:00Z,00000380,01000600,0000.42,-000.17,0000.04,0000.14,-000.06,0000.10,-000.01,-000.01,0000.23,23.8,00.0,0649.4,31.0
2020-12-06T01:35:00Z,00000380,01000600,-000.03,-000.07,0001.10,-000.26,-000.04,0000.01,0000.14,0000.00,-000.20,23.8,00.0,0649.4,31.0
2020-12-06T01:36:00Z,00000380,01000600,0000.37,0000.20,0000.20,-000.38,0000.05,-000.17,-000.00,0000.14,0000.21,23.8,00.0,0649.4,31.0
2020-12-06T01:37:00Z,00000380,01000600,0000.27,0000.16,0000.65,-000.40,0000.19,0000.28,0000.00,-000.15,-000.03,23.8,00.0,0649.4,31.0
2020-12-06T01:38:00Z,00000380,01000600,0000.13,-000.24,0000.37,-000.34,-000.13,-000.17,0000.12,0000.27,0000.05,23.8,00.0,0649.4,31.0
2020-12-06T01:39:00Z,00000380,01000600,0000.65,0000.11,0000.87,0000.07,0000.05,0000.43,0000.19,0000.04,0000.07,23.8,00.0,0649.4,30.9
2020-12-06T01:40:00Z,00000380,01000600,0000.65,0000.21,0000.08,-000.87,0000.12,0000.04,0000.00,0000.09,0000.19,23.8,00.0,0649.4,30.9
2020-12-06T01:41:00Z,00000380,01000600,0000.39,0000.25,0000.29,-000.37,0000.17,0000.03,0000.06,-000.01,-000.09,23.8,00.0,0649.4,31.0
2020-12-06T01:42:00Z,00000380,01000600,0000.12,-000.29,0000.12,-000.11,0000.21,0000.12,-000.03,-000.01,0000.04,23.8,00.0,0649.4,31.0
2020-12-06T01:43:00Z,00000380,01000600,-000.06,0000.04,0000.56,-000.55,0000.25,0000.33,-000.06,-000.03,-000.00,23.8,00.0,0649.4,31.0
2020-12-06T01:44:00Z,00000380,01000600,0000.37,0000.19,-000.02,-001.05,0000.13,-000.09,0000.20,0000.24,0000.06,23.8,00.0,0649.4,31.0
2020-12-06T01:45:00Z,00000380,01000600,0000.15,-000.02,0000.30,-000.21,-000.30,0000.12,-000.05,-000.22,0000.04,23.9,00.0,0649.5,31.0
2020-12-06T01:46:00Z,00000380,01000600,0000.25,-000.31,0000.85,-000.34,0000.16,0000.63,-000.13,0000.05,-000.15,23.8,00.0,0649.5,31.0
2020-12-06T01:47:00Z,00000380,01000600,-000.96,0000.96,-000.05,-000.83,0000.01,-000.25,0000.07,0000.02,0000.00,23.8,00.0,0649.5,31.0
2020-12-06T01:48:00Z,00000380,01000600,0000.27,0000.78,0000.02,-000.13,0000.12,0000.03,0000.11,0000.04,0000.12,23.8,00.0,0649.5,31.0
2020-12-06T01:49:00Z,00000380,01000600,0000.34,0000.07,0000.12,-000.10,-000.04,0000.19,-000.10,0000.05,0000.07,23.8,00.0,0649.5,31.0
2020-12-06T01:50:00Z,00000380,01000600,-000.03,0000.48,0000.09,-000.59,0000.13,0000.03,0000.06,0000.05,0000.08,23.8,00.0,0649.5,31.0
2020-12-06T01:51:00Z,00000380,01000600,0000.79,0000.15,0000.03,0000.15,0000.20,-000.25,-000.02,0000.06,0000.02,23.8,00.0,0649.5,31.0
2020-12-06T01:52:00Z,00000380,01000600,0000.57,-000.26,0000.14,-000.02,-000.36,-000.24,0000.18,-000.00,-000.01,23.8,00.0,0649.5,31.0
2020-12-06T01:53:00Z,00000380,01000600,0001.34,0000.08,0000.39,-000.36,-000.05,0000.18,0000.16,0000.13,-000.05,23.8,00.0,0649.5,31.0
2020-12-06T01:54:00Z,00000380,01000600,0000.67,-000.37,0000.23,-000.19,0000.11,0000.31,-000.08,0000.07,0000.08,23.8,00.0,0649.5,31.0
2020-12-06T01:55:00Z,00000380,01000600,-000.43,-000.28,-000.27,-000.62,0000.08,-000.32,0000.01,0000.10,0000.01,23.8,00.0,0649.4,31.0
2020-12-06T01:56:00Z,00000380,01000600,0001.49,-000.41,0000.22,-000.23,-000.12,0000.06,0000.06,-000.07,-000.06,23.8,00.0,0649.4,31.0
2020-12-06T01:57:00Z,00000380,41000600,,,,,,,,,,23.9,00.0,0649.5,30.9
2020-12-06T01:58:00Z,00000380,61000600,,,,,,,,,,23.9,00.0,0648.5,31.0
2020-12-06T01:59:00Z,00000380,21000600,,,,,,,,,,24.0,00.0,0648.5,31.0
2020-12-06T02:00:00Z,00000380,21000600,,,,,,,,,,24.1,00.0,0648.5,31.0
2020-12-06T02:01:00Z,00000380,21000600,,,,,,,,,,24.1,00.0,0648.5,31.0
2020-12-06T02:02:00Z,00000380,21000600,,,,,,,,,,24.1,00.0,0648.5,31.0
2020-12-06T02:03:00Z,00000380,61000600,,,,,,,,,,24.1,00.0,0648.5,31.0
2020-12-06T02:04:00Z,00000380,41000600,0000.73,0000.15,-000.35,0000.68,-000.01,-000.10,0000.04,0000.08,0000.04,23.9,00.0,0649.4,31.0
2020-12-06T02:05:00Z,00000380,01000600,0000.94,0000.40,0000.16,0001.84,0000.04,-000.48,0000.07,0000.09,0000.04,23.9,00.0,0649.4,31.0
2020-12-06T02:06:00Z,00000380,01000600,0000.58,-000.12,0000.02,0000.17,0000.26,0000.02,0000.07,0000.12,0000.07,23.8,00.0,0649.4,31.0
2020-12-06T02:07:00Z,00000380,01000600,-000.04,-000.03,0000.18,0000.82,-000.01,0000.13,0000.01,0000.07,-000.03,23.8,00.0,0649.4,31.0
2020-12-06T02:08:00Z,00000380,01000600,0000.20,0000.16,-000.09,-000.15,0000.13,-000.33,-000.02,-000.12,-000.01,23.8,00.0,0649.4,31.0
2020-12-06T02:09:00Z,00000380,01000600,0000.21,0000.13,0000.42,0001.02,0000.26,-000.19,0000.16,0000.32,0000.17,23.8,00.0,0649.4,30.9
2020-12-06T02:10:00Z,00000380,01000600,0000.29,-000.25,0000.29,0000.69,0000.49,-000.29,0000.24,0000.12,0000.03,23.8,00.0,0649.3,31.0
2020-12-06T02:11:00Z,00000380,01000600,0000.68,0000.59,0000.31,0000.93,0000.24,-000.26,0000.03,-000.12,0000.04,23.8,00.0,0649.3,31.0
2020-12-06T02:12:00Z,00000380,01000600,0000.56,-000.03,-000.27,0000.93,-000.03,-000.46,-000.06,-000.07,-000.02,23.9,00.0,0649.3,31.0
2020-12-06T02:13:00Z,00000380,01000600,-000.23,0000.13,0000.15,0000.56,0000.04,0000.24,0000.01,0000.21,-000.01,23.9,00.0,0649.3,31.0
2020-12-06T02:14:00Z,00000380,01000600,-000.05,0000.38,0000.24,0000.94,-000.07,-000.02,-000.13,-000.18,0000.07,23.9,00.0,0649.3,31.0
2020-12-06T02:15:00Z,00000380,01000600,0000.98,0000.41,0000.14,0001.11,-000.14,-000.00,0000.11,-000.02,-000.10,23.9,00.0,0649.4,31.0
2020-12-06T02:16:00Z,00000380,01000600,0001.13,0000.15,0000.22,0000.48,-000.18,-000.28,-000.21,0000.06,0000.11,23.9,00.0,0649.4,31.0
2020-12-06T02:17:00Z,00000380,01000600,0001.05,0000.34,-000.07,0000.45,0000.00,0000.13,-000.01,-000.20,-000.15,23.9,00.0,0649.4,31.0
2020-12-06T02:18:00Z,00000380,01000600,0000.04,0000.47,0000.40,-000.09,0000.14,0000.04,-000.03,0000.10,0000.01,23.9,00.0,0649.4,31.0
2020-12-06T02:19:00Z,00000380,01000600,0000.13,0000.02,-000.22,0000.89,0000.10,-000.15,0000.00,-000.01,0000.01,23.9,00.0,0649.5,31.0
2020-12-06T02:20:00Z,00000380,01000600,0000.79,0000.50,0000.10,0000.49,-000.23,0000.11,-000.20,-000.09,-000.07,23.9,00.0,0649.5,31.0
2020-12-06T02:21:00Z,00000380,01000600,0000.43,0000.16,0000.32,0000.42,0000.34,-000.21,0000.24,0000.03,-000.08,23.9,00.0,0649.5,31.0
2020-12-06T02:22:00Z,00000380,01000600,0001.52,0000.46,-000.59,0000.17,-000.12,-000.32,-000.15,-000.10,0000.07,23.9,00.0,0649.5,31.0
2020-12-06T02:23:00Z,00000380,01000600,0001.08,0000.39,0000.17,0001.10,0000.08,0000.06,-000.01,0000.08,-000.06,23.9,00.0,0649.5,31.0
2020-12-06T02:24:00Z,00000380,01000600,0000.78,-000.24,-000.27,0000.03,0000.05,-000.45,0000.13,-000.13,-000.08,23.8,00.0,0649.5,31.0
2020-12-06T02:25:00Z,00000380,01000600,0000.69,0000.11,0000.32,0000.85,0000.42,0000.20,-000.23,-000.01,-000.09,23.9,00.0,0649.5,31.0
2020-12-06T02:26:00Z,00000380,01000600,0000.54,0000.12,0000.17,0000.48,-000.13,0000.21,-000.14,0000.02,0000.12,23.8,00.0,0649.6,31.0
2020-12-06T02:27:00Z,00000380,01000600,0000.65,0000.28,-000.02,0000.08,0000.12,-000.18,0000.04,-000.03,0000.09,23.9,00.0,0649.5,31.0
2020-12-06T02:28:00Z,00000380,01000600,0000.33,-000.18,0000.53,0000.77,-000.14,-000.14,0000.08,0000.17,-000.18,23.8,00.0,0649.6,31.0
2020-12-06T02:29:00Z,00000380,01000600,0000.21,-000.09,-000.11,0001.15,0000.20,0000.39,0000.08,-000.08,0000.20,23.8,00.0,0649.6,31.0
2020-12-06T02:30:00Z,00000380,01000600,0001.07,-000.14,0000.37,0001.09,0000.45,-000.16,-000.03,-000.05,0000.07,23.8,00.0,0649.6,31.0
2020-12-06T02:31:00Z,00000380,01000600,-000.32,-000.32,0000.26,0000.96,0000.29,-000.20,0000.11,0000.08,-000.05,23.8,00.0,0649.7,31.0
2020-12-06T02:32:00Z,00000380,01000600,0000.16,0000.33,0000.15,0000.10,0000.22,0000.18,0000.10,-000.02,0000.01,23.8,00.0,0649.7,31.0
2020-12-06T02:33:00Z,00000380,01000600,0000.75,0000.18,0000.02,0000.32,-000.05,0000.37,-000.29,-000.08,-000.05,23.8,00.0,0649.7,30.9
2020-12-06T02:34:00Z,00000380,01000600,-000.20,0000.18,0000.22,0000.49,0000.03,0000.24,-000.04,-000.19,-000.04,23.8,00.0,0649.8,31.0
2020-12-06T02:35:00Z,00000380,01000600,0001.37,-000.46,0000.00,0000.21,0000.39,-000.16,-000.04,0000.09,-000.01,23.8,00.0,0649.8,31.0
2020-12-06T02:36:00Z,00000380,01000600,0000.20,0000.37,0000.23,-000.15,0000.65,-000.37,-000.08,0000.10,-000.15,23.8,00.0,0649.8,31.0
2020-12-06T02:37:00Z,00000380,01000600,-000.02,0000.31,0000.10,0000.24,0000.10,0000.01,0000.03,-000.30,-000.02,23.8,00.0,0649.8,31.0
2020-12-06T02:38:00Z,00000380,01000600,0000.13,0000.07,0000.06,0000.69,0000.02,-000.23,-000.19,0000.00,-000.27,23.8,00.0,0649.8,31.0
2020-12-06T02:39:00Z,00000380,01000600,-000.68,0000.10,0000.06,-000.24,0000.14,-000.18,-000.09,-000.02,0000.27,23.8,00.0,0649.8,31.0
2020-12-06T02:40:00Z,00000380,01000600,0000.76,0000.16,-000.10,0000.49,0000.03,0000.27,0000.28,0000.03,0000.00,23.8,00.0,0649.8,31.0
2020-12-06T02:41:00Z,00000380,01000600,0000.98,0000.37,-000.03,0000.86,-000.39,0000.08,-000.19,0000.06,-000.15,23.8,00.0,0649.8,31.0
2020-12-06T02:42:00Z,00000380,01000600,0000.68,0000.04,-000.10,0000.09,0000.16,0000.09,0000.06,-000.19,0000.04,23.9,00.0,0649.8,31.0
2020-12-06T02:43:00Z,00000380,01000600,0000.27,0000.54,-000.11,0000.19,0000.48,0000.20,-000.02,0000.07,0000.00,23.9,00.0,0649.9,31.0
2020-12-06T02:44:00Z,00000380,01000600,0001.01,0000.53,0000.41,0000.21,0000.09,-000.02,-000.08,0000.01,-000.03,23.9,00.0,0649.9,31.0
2020-12-06T02:45:00Z,00000380,01000600,0001.11,0000.47,-000.33,0001.20,0000.07,0000.04,-000.13,-000.13,-000.04,23.9,00.0,0649.8,31.0
2020-12-06T02:46:00Z,00000380,01000600,0000.95,0000.02,-000.25,0000.24,0000.12,-000.05,0000.12,0000.09,-000.06,23.9,00.0,0649.9,31.0
2020-12-06T02:47:00Z,00000380,01000600,0001.05,0000.24,0000.00,0000.85,0000.26,-000.03,-000.14,-000.02,0000.10,23.9,00.0,0649.9,31.0
2020-12-06T02:48:00Z,00000380,01000600,0000.42,0000.26,0000.19,0001.27,0000.13,0000.31,-000.02,-000.18,-000.12,23.9,00.0,0649.9,31.0
2020-12-06T02:49:00Z,00000380,01000600,0000.15,0000.10,-000.44,0000.95,-000.12,-000.94,-000.11,-000.02,-000.06,23.9,00.0,0649.9,31.0
2020-12-06T02:50:00Z,00000380,01000600,-000.40,0000.73,0000.29,-000.00,0000.14,-000.37,-000.12,-000.05,-000.04,23.9,00.0,0649.9,31.0
2020-12-06T02:51:00Z,00000380,01000600,0000.93,0000.32,0000.16,0000.91,0000.01,-000.34,-000.10,-000.01,-000.03,23.9,00.0,0649.9,31.0
2020-12-06T02:52:00Z,00000380,01000600,0000.32,-000.31,0000.14,0000.89,-000.10,-000.08,-000.00,-000.05,0000.06,23.9,00.0,0649.9,31.0
2020-12-06T02:53:00Z,00000380,01000600,0000.78,0000.00,0000.18,0000.92,0000.00,-000.21,-000.06,-000.02,-000.06,23.9,00.0,0649.9,31.0
2020-12-06T02:54:00Z,00000380,01000600,0001.30,0000.71,0000.36,0000.18,-000.20,0000.01,0000.04,-000.06,-000.11,23.9,00.0,0649.9,31.0
2020-12-06T02:55:00Z,00000380,01000600,0000.81,0000.31,0000.08,0000.48,0000.39,0000.01,-000.08,-000.02,0000.02,23.8,00.0,0649.9,31.0
2020-12-06T02:56:00Z,00000380,01000600,0000.73,-000.30,0000.39,0000.88,0000.46,-000.41,0000.09,-000.02,-000.04,23.8,00.0,0649.9,31.0
2020-12-06T02:57:00Z,00000380,41000600,,,,,,,,,,23.9,00.0,0649.9,31.0
2020-12-06T02:58:00Z,00000380,61000600,,,,,,,,,,24.0,00.0,0649.0,31.0
2020-12-06T02:59:00Z,00000380,21010600,,,,,,,,,,24.1,00.0,0649.0,31.0
2020-12-06T03:00:00Z,00000380,21000600,,,,,,,,,,24.1,00.0,0649.0,31.0
2020-12-06T03:01:00Z,00000380,21000600,,,,,,,,,,24.0,00.0,0649.0,31.0
2020-12-06T03:02:00Z,00000380,21000600,,,,,,,,,,24.0,00.0,0649.0,31.0
2020-12-06T03:03:00Z,00000380,61000600,,,,,,,,,,24.1,00.0,0649.0,31.0
2020-12-06T03:04:00Z,00000380,41000600,0000.71,-000.16,0000.31,0000.30,-000.17,0000.29,0000.06,-000.04,-000.11,23.9,00.0,0649.9,31.0
2020-12-06T03:05:00Z,00000380,01000600,0000.17,-000.25,0000.27,0000.64,0000.10,0000.23,-000.12,0000.07,0000.22,23.9,00.0,0650.0,31.0
2020-12-06T03:06:00Z,00000380,01000600,-000.46,-000.40,0000.77,0001.34,-000.06,0000.20,0000.04,-000.20,-000.10,23.9,00.0,0650.0,31.0
2020-12-06T03:07:00Z,00000380,01000600,0001.07,0000.40,0000.33,0000.43,0000.08,0000.19,0000.07,0000.16,-000.02,23.9,00.0,0650.0,31.0
2020-12-06T03:08:00Z,00000380,01000600,-000.03,0000.17,0000.18,0001.51,-000.20,0000.26,-000.10,0000.05,-000.08,23.9,00.0,0650.0,31.0
2020-12-06T03:09:00Z,00000380,01000600,0000.30,0000.03,0000.48,0001.07,0000.18,0000.10,0000.10,0000.10,-000.09,23.8,00.0,0650.0,31.0
2020-12-06T03:10:00Z,00000380,01000600,0000.36,0000.35,0000.20,0000.99,-000.07,0000.41,-000.06,-000.10,0000.09,23.8,00.0,0650.0,31.0